Погода в Казачьей Лопани

Украина / Харьковская область     50°20′11″N   36°10′43″E
темп.,
°C
ветер,
м/с
пор.,
м/с
влажн.,
%
обл.,
%
осадки,
мм/ч
давл.,
гПа
погр.,
м
17 мая, пн
пн1700:00+17всв51292100 0.8 1007220
03:00+16в61584100 0.8 1006321
06:00+14в51382100 0.0 1006276
09:00+19вюв71763100 0.0 1005646
12:00+23юв810525 0.0 10051057
15:00+25юв71157100 0.0 10041493
18:00+24ююв61067100 0.0 1004652
21:00+19ююв3883100 0.0 1006153
18 мая, вт
вт1800:00+18юв2387100 0.2 100658
03:00+16ююв3695100 0.5 1006112
06:00+16ююв3795100 0.0 1007269
09:00+16ю379397 1.6 1007368
12:00+19ю5674100 0.4 1007928
15:00+18ююв477813 1.4 1006603
18:00+19ююв5773100 0.4 1006938
21:00+15ююв3688100 2.1 1006100
19 мая, ср
ср1900:00+13ю2395100 0.1 100569
03:00+13юв389553 0.1 1006247
06:00+13ю5995100 0.0 1006514
09:00+14ююв578125 0.0 1007709
12:00+18юв666399 0.3 10061389
15:00+18ююв6961100 1.4 10051654
18:00+16ююв587632 0.4 10061063
21:00+13ююв5109240 0.8 1006450
20 мая, чт
чт2000:00+12ююв4895100 0.1 1006366
03:00+11юз4997100 0.4 1007404
06:00+12юз4995100 0.1 1008664
09:00+12зюз6109189 0.2 1010717
12:00+16зюз7117385 0.5 10121288
15:00+20з710548 0.7 10132014
18:00+18зюз4763100 0.0 1014613
21:00+14юз227681 0.0 101513
21 мая, пт
пт2100:00+13с0178100 0.0 101611
03:00+14ююв347878 0.0 101687
06:00+13ю238428 0.0 101769
09:00+19ююв35636 0.0 1017504
12:00+22юв685378 0.0 10171706
15:00+23юв6850100 0.0 10161747
18:00+22юв595865 0.0 1015420
21:00+17вюв497846 0.0 1015148